COSMOS 2251 DEB

Satellite information

Favourite Embed

Satellite Type and Status

DEBRISIN ORBIT

Key statistics

Satellite COSMOS 2251 DEB at a glance.

Uptime

11647

Days in orbit

Revolutions

≈ 14.5

Per day

Orbit

LEO

Low Earth Orbit

Inclination

74.0

Latest

Satellite identification and parameters

Extended collection of information and parameters for COSMOS 2251 DEB.

Object identification

Identified? True

Debris? True

Object name: COSMOS 2251 DEB

International designator: 1993-036ALP

Object number (NORAD): 35469

Object ID (CCSDS): 35469

Country: COMMONWEALTH OF INDEPENDENT STATES (CIS)

Current information (Y/N): Y

RCS size: SMALL

Orbital parameters

Period: 99.34 minutes

Inclination: 74.016 deg

SMA: 7105.216 km

Apoapsis: 782.892 km

Periapsis: 671.269 km

RAAN: 79.5252 deg

Eccentricy: 0.007855

Argument of periapsis: 287.4195 deg

Mean anomaly: 71.8388 deg

Mean motion: 14.49562219 rev/day

Mean motion (dot): 0.00000695 rev/day2

B* drag term: 0.00018187 1/REarth

Two-line elements (TLE)

Creation date: May 6, 2025, 3:54 a.m.

Reference frame: TEME

Reference center: EARTH

Epoch: May 5, 2025, 1:14 p.m. UTC

TLE line 0: 0 COSMOS 2251 DEB

TLE line 1: 1 35469U 93036ALP 25125.55174757 .00000695 00000-0 18187-3 0 9992

TLE line 2: 2 35469 74.0160 79.5252 0078550 287.4195 71.8388 14.49562219849063

Live tracking on map

Real-time ground track for satellite COSMOS 2251 DEB.

In-orbit conjunctions

A list of the most updated potential collisions computed for object COSMOS 2251 DEB.

Target Orbit TCA Probability of collision Miss distance Type
CZ-6A DEB LEO 2025-02-06 22:47:52 0.0002270039 804.0 (m) DEBRIS
SL-8 DEB LEO 2024-06-17 06:16:41 0.0005909997 52.0 (m) DEBRIS

Associated space launch

Military communications satellite. Destroyed in a collision with Iridium 33.

COSMOS 2251 DEB was lifted into orbit during the mission ‘Kosmos-3M | Strela-2M 51’, on board a Kosmos-3M space rocket.

The launch took place on June 16, 1993, 4:17 a.m. from 132/1 (132L).

For more information about the launch, click the button.

Launch to space Kosmos-3M | Strela-2M 51
Kosmos-3M | Strela-2M 51

Agency: N/A

Status: Launch Successful

Launch date: June 16, 1993, 4:17 a.m. UTC

Rocket: Kosmos-3M

Launch pad: 132/1 (132L)

Location: Plesetsk Cosmodrome, Russian Federation

...

Latest news about this satellite

There are no fresh news available about this satellite. Check back as we update our databases every day.


Newsletter sign-up

Weekly statistics, charts and insights to help you stay on top of the space industry.